CZ-6 R/B, 49023

Orbit data source: Space-Track

CZ-6 R/B, 49023 is space debris in LEO originally from a launch on Fri, 09 Jul 2021 UTC launched from the Taiyaun Space Center, China (TSC). Debris objects in space refer to the collection of defunct objects orbiting the Earth. Examples of debris include non-operational satellites, rocket bodies, and fragments generated from explosions, collisions, or faulty payload assembly.

Loading next visibility...
Identifier
49023, 2021-064F
Orbit
LEO
Country
Flag of CNCN / PRC
Related business
Manufacturer
SAST
Mission
Spacecraft
Bus & Motor
CZ-6 STAGE 3, YF-85 X 4
Mass
~1,000 kg wet, ~1,000 kg dry
Launch date (UTC)
2021-07-09 (5 years ago)
Launch vehicle
Unknown
Launch site
Taiyaun Space Center, China (TSC)
Object type
Payload
Rocket body
Debris
Shape & HBR
Cyl, 2.0 m
Radar Cross Section
9.057 m², Large (>1 m²)

Expand to show TLE details & history
Last TLE update: 19 hours ago

TLE from 19 hours ago
0 CZ-6 R/B
1 49023U 21064F   26171.33548554  .00000005  00000-0  45582-4 0  9998
2 49023  44.9966 140.4016 0170747  99.8292 262.1882 14.40263665260339
Epoch: 2026-06-20T08:03Z
TLE epoch observation values (Epoch: 2026-06-20T08:03:05.950Z)
Latitude
Longitude
111.07523°
Altitude
776.219 km
Speed
7.458 km/s
True Right ascension
09h 21m 36s
True Declination
0° 00' 00"
Sunlit
Object was in daylight at epoch
Visualization orbit readout
Latitude
Unknown
Longitude
Unknown
Altitude
Unknown
Speed
Unknown
Apparent Right ascension
Unknown
Apparent Declination
Unknown
Sunlit
N/A
Visualization observer readout
Local Sidereal Time
14:08:46
Azimuth
Unknown
Elevation
Unknown
Doppler factor
Unknown
Orbital elements
Apogee altitude
881.044 km
Perigee altitude
637.309 km
Semi-major axis
7,137.313 km
Eccentricity
0.01707
Inclination
44.9966°
RAAN
140.4016°
Arg. of periapsis
99.8292°
True anomaly
260.25572°
Mean anomaly
262.1882°
Eccentric anomaly
261.22135°
Mean motion
3.59949 °/min
Orbital period
100.01 mins
BSTAR
0.000045582
Loading maneuver chart data...
Computing Atmospheric mass density...
Loading historical data...
Loading historical data...
Loading historical data...
Loading historical data...
Loading historical data...
Loading historical data...
Loading historical data...
Other satellites on launch #64 in the year 2021 (2021-07-09 UTC)

Documentation

Showing up to 5 results
|